Easton, MD

12:50 PM EDT on August 18, 2017 (GMT -0400)
Easton / Newnam

Weather History for KESN - September, 2013

Change the Weather History Date:

Sunday, September 1, 2013

  Actual Average Record
Temperature  
Mean Temperature 80 °F -  
Max Temperature 89 °F 83 °F 94 °F (1951)
Min Temperature 71 °F 61 °F 50 °F (1948)
Cooling Degree Days 15    
Growing Degree Days 30 (Base 50)    
Moisture  
Dew Point 73 °F    
Average Humidity 87    
Maximum Humidity 100    
Minimum Humidity 52    
Precipitation  
Precipitation 0.00 in - - ()
Sea Level Pressure  
Sea Level Pressure 29.87 in    
Wind  
Wind Speed 2 mph (SW)    
Max Wind Speed 10 mph    
Max Gust Speed -    
Visibility 10 miles    
Events      
Averages and records for this station are not official NWS values.
T = Trace of Precipitation, MM = Missing Value Source: NWS Daily Summary

Daily Weather History Graph

Daily Weather History Graph

Search for Another Location

Airport or City:

Trip Planner

Search our weather history database for the weather conditions in past years. The results will help you decide how hot, cold, wet, or windy it might be!

Date:

Astronomy

Sep. 01, 2013 Rise Set
Actual Time 6:33 AM EDT 7:34 PM EDT
Civil Twilight 6:06 AM EDT 8:01 PM EDT
Nautical Twilight 5:33 AM EDT 8:33 PM EDT
Astronomical Twilight 5:00 AM EDT 9:07 PM EDT
Moon 2:54 AM EDT (9/1) 5:08 PM EDT (9/1)
Length of Visible Light 13h 55m
Length of Day
13h 00m
Waning Crescent, 14% of the Moon is Illuminated
Sep 1
Waning Crescent
Sep 5
New
Sep 12
First Quarter
Sep 19
Full
Sep 26
Last Quarter

Hourly Weather History & Observations

Time (EDT) Temp. Heat Index Dew Point Humidity Pressure Visibility Wind Dir Wind Speed Gust Speed Precip Events Conditions
12:05 AM 77.0 °F - 74.8 °F 93% 29.89 in 10.0 mi Calm Calm - N/A   Clear
12:25 AM 76.5 °F - 75.0 °F 95% 29.88 in 10.0 mi Calm Calm - N/A   Clear
12:45 AM 76.5 °F - 74.8 °F 95% 29.89 in 10.0 mi Calm Calm - N/A   Clear
1:05 AM 76.3 °F - 74.3 °F 94% 29.89 in 10.0 mi Calm Calm - N/A   Clear
1:25 AM 76.3 °F - 73.8 °F 92% 29.89 in 10.0 mi Calm Calm - N/A   Clear
1:45 AM 76.1 °F - 73.4 °F 91% 29.89 in 10.0 mi Calm Calm - N/A   Clear
2:05 AM 75.2 °F - 72.9 °F 92% 29.88 in 10.0 mi Calm Calm - N/A   Clear
2:25 AM 73.9 °F - 72.5 °F 95% 29.87 in 10.0 mi Calm Calm - N/A   Clear
2:45 AM 74.5 °F - 72.5 °F 94% 29.87 in 10.0 mi Calm Calm - N/A   Clear
3:05 AM 74.3 °F - 72.5 °F 94% 29.86 in 10.0 mi Calm Calm - N/A   Clear
3:25 AM 74.1 °F - 72.5 °F 95% 29.86 in 10.0 mi Calm Calm - N/A   Clear
3:45 AM 73.8 °F - 72.1 °F 95% 29.85 in 10.0 mi Calm Calm - N/A   Clear
4:05 AM 73.6 °F - 72.0 °F 95% 29.85 in 10.0 mi Calm Calm - N/A   Clear
4:25 AM 73.6 °F - 71.8 °F 94% 29.85 in 10.0 mi Calm Calm - N/A   Clear
4:45 AM 73.8 °F - 71.8 °F 93% 29.85 in 10.0 mi Calm Calm - N/A   Clear
5:06 AM 72.3 °F - 72.3 °F 100% 29.85 in 10.0 mi Calm Calm - N/A   Clear
5:26 AM 72.7 °F - 72.7 °F 100% 29.86 in 10.0 mi Calm Calm - N/A   Clear
5:46 AM 72.1 °F - 72.1 °F 100% 29.87 in 10.0 mi Calm Calm - N/A   Clear
5:50 AM 71.6 °F - 71.6 °F 100% 29.87 in 10.0 mi Calm Calm - N/A   Scattered Clouds
6:06 AM 72.7 °F - 72.7 °F 100% 29.87 in 10.0 mi Calm Calm - N/A   Clear
6:26 AM 71.8 °F - 71.8 °F 100% 29.87 in 10.0 mi Calm Calm - N/A   Clear
6:46 AM 72.5 °F - 72.5 °F 100% 29.88 in 10.0 mi Calm Calm - N/A   Clear
6:56 AM 73.4 °F - 73.4 °F 100% 29.89 in 10.0 mi SSW 6.9 mph - N/A   Mostly Cloudy
7:06 AM 73.4 °F - 73.4 °F 100% 29.89 in 10.0 mi Calm Calm - N/A   Clear
7:26 AM 73.9 °F - 73.9 °F 100% 29.89 in 10.0 mi Calm Calm - N/A   Clear
7:43 AM 73.8 °F - 73.8 °F 100% 29.89 in 10.0 mi Calm Calm - N/A   Clear
7:50 AM 73.4 °F - 73.4 °F 100% 29.89 in 10.0 mi SSW 5.8 mph - N/A   Mostly Cloudy
8:48 AM 77.0 °F - 73.4 °F 89% 29.90 in 10.0 mi SSW 6.9 mph - N/A   Scattered Clouds
9:45 AM 80.6 °F 85.4 °F 73.4 °F 79% 29.90 in 10.0 mi SSW 9.2 mph - N/A   Scattered Clouds
10:45 AM 84.2 °F 89.6 °F 71.6 °F 66% 29.90 in 10.0 mi SSW 9.2 mph - N/A   Scattered Clouds
11:50 AM 86.0 °F 91.8 °F 71.6 °F 62% 29.88 in 10.0 mi SSW 9.2 mph - N/A   Scattered Clouds
12:06 PM 86.2 °F 93.0 °F 72.5 °F 64% 29.88 in 10.0 mi Calm Calm - N/A   Clear
12:17 PM 86.0 °F 92.2 °F 72.0 °F 63% 29.88 in 10.0 mi Calm Calm - N/A   Clear
12:45 PM 89.6 °F 98.2 °F 73.4 °F 59% 29.87 in 10.0 mi West 6.9 mph - N/A   Scattered Clouds
1:50 PM 87.8 °F 95.6 °F 73.4 °F 62% 29.85 in 10.0 mi SW 10.4 mph - N/A   Scattered Clouds
2:55 PM 89.6 °F 98.2 °F 73.4 °F 59% 29.85 in 10.0 mi SW 10.4 mph - N/A   Scattered Clouds
3:45 PM 89.6 °F 98.2 °F 73.4 °F 59% 29.84 in 10.0 mi WSW 8.1 mph - N/A   Scattered Clouds
4:50 PM 89.6 °F 94.7 °F 69.8 °F 52% 29.82 in 10.0 mi SW 6.9 mph - N/A   Scattered Clouds
5:45 PM 89.6 °F 96.2 °F 71.6 °F 55% 29.81 in 10.0 mi SW 8.1 mph - N/A   Scattered Clouds
6:55 PM 82.4 °F 88.2 °F 73.4 °F 74% 29.82 in 10.0 mi SSW 6.9 mph - N/A   Scattered Clouds
7:53 PM 80.6 °F 86.2 °F 75.2 °F 84% 29.82 in 10.0 mi South 8.1 mph - N/A   Scattered Clouds
8:45 PM 78.8 °F - 75.2 °F 89% 29.84 in 10.0 mi SW 4.6 mph - N/A   Partly Cloudy
11:08 PM 77.4 °F - 77.2 °F 99% 29.85 in 10.0 mi Calm Calm - N/A   Clear
11:28 PM 77.0 °F - 77.0 °F 100% 29.84 in 10.0 mi Calm Calm - N/A   Clear
11:48 PM 77.0 °F - 77.0 °F 100% 29.83 in 7.0 mi Calm Calm - N/A   Clear